カタログに戻る

RAPIDEYE 1

運用中科学SSO
NORAD 33314·PAYLOAD·🇩🇪 Germany

打ち上げ Aug 29, 2008 から Baikonur Cosmodrome

Loading…

次のパス (今後24時間)

TLE

最新Source: Space-Track

元期: Sep 14, 2026, 12:36 UTC

1 33314U 08040C   26257.52555234  .00000805  00000-0  62782-4 0  9991
2 33314  97.4072 281.6922 0025486 232.4618 127.4293 15.03640968979089

AllMySatでRAPIDEYE 1をリアルタイム追跡

Download on the App Store